Weather History for KVPZ - April, 2014

Change the Weather History Date:

Tuesday, April 1, 2014

  Actual Average Record
Temperature  
Mean Temperature 45 °F 44 °F  
Max Temperature 54 °F 54 °F 82 °F (2010)
Min Temperature 36 °F 34 °F 22 °F (2011)
Degree Days  
Heating Degree Days 20 21  
Month to date heating degree days 20 21  
Since 1 July heating degree days 6469 5598  
Cooling Degree Days 0 0  
Month to date cooling degree days 0 0  
Year to date cooling degree days 0 0  
Moisture  
Dew Point 29 °F    
Average Humidity 55    
Maximum Humidity 68    
Minimum Humidity 43    
Precipitation  
Precipitation 0.00 in 0.09 in 0.40 in (2002)
Month to date precipitation 0.00 0.09  
Year to date precipitation 3.42 5.74  
Sea Level Pressure  
Sea Level Pressure 29.91 in    
Wind  
Wind Speed 18 mph (WSW)    
Max Wind Speed 32 mph    
Max Gust Speed 43 mph    
Visibility 10 miles    
Events      
T = Trace of Precipitation, MM = Missing Value Source: NWS Daily Summary

Daily Weather History Graph

Daily Weather History Graph

Search for Another Location

Airport or City:

Trip Planner

Search our weather history database for the weather conditions in past years. The results will help you decide how hot, cold, wet, or windy it might be!

Date:

Astronomy

Apr. 01, 2014 Rise Set
Actual Time 6:31 AM CDT 7:13 PM CDT
Civil Twilight 6:03 AM CDT 7:41 PM CDT
Nautical Twilight 5:30 AM CDT 8:14 PM CDT
Astronomical Twilight 4:56 AM CDT 8:48 PM CDT
Moon 7:32 AM CDT (4/1) 9:37 PM CDT (4/1)
Length of Visible Light 13h 38m
Length of Day
12h 42m
Waxing Crescent, 5% of the Moon is Illuminated
Apr 1
Waxing Crescent
Apr 7
First Quarter
Apr 15
Full
Apr 22
Last Quarter
Apr 29
New

Hourly Weather History & Observations

Time (CDT) Temp. Windchill Dew Point Humidity Pressure Visibility Wind Dir Wind Speed Gust Speed Precip Events Conditions
12:53 AM 53.1 °F - 39.9 °F 61% 29.80 in 10.0 mi South 11.5 mph - 0.00 in   Overcast
1:53 AM 53.1 °F - 39.0 °F 59% 29.77 in 10.0 mi South 13.8 mph 19.6 mph N/A   Overcast
2:53 AM 51.1 °F - 37.9 °F 61% 29.75 in 10.0 mi South 9.2 mph - N/A   Partly Cloudy
3:53 AM 53.1 °F - 39.9 °F 61% 29.73 in 10.0 mi SSW 13.8 mph - N/A   Clear
4:53 AM 51.1 °F - 41.0 °F 68% 29.73 in 10.0 mi SW 18.4 mph 25.3 mph N/A   Partly Cloudy
5:53 AM 46.0 °F 39.6 °F 30.9 °F 56% 29.76 in 10.0 mi WSW 15.0 mph - N/A   Overcast
6:53 AM 43.0 °F 35.4 °F 28.9 °F 58% 29.80 in 10.0 mi West 16.1 mph - N/A   Mostly Cloudy
7:53 AM 39.0 °F 28.8 °F 25.0 °F 57% 29.83 in 10.0 mi WSW 21.9 mph 32.2 mph N/A   Clear
8:53 AM 37.9 °F 26.6 °F 24.1 °F 57% 29.87 in 10.0 mi WSW 25.3 mph 32.2 mph N/A   Clear
9:48 AM 35.6 °F 23.4 °F 23.0 °F 60% 29.88 in 10.0 mi WSW 25.3 mph 32.2 mph N/A   Mostly Cloudy
9:53 AM 36.0 °F 25.0 °F 24.1 °F 62% 29.89 in 10.0 mi WSW 20.7 mph 34.5 mph N/A   Mostly Cloudy
10:53 AM 37.9 °F 26.6 °F 24.1 °F 57% 29.90 in 10.0 mi WSW 25.3 mph 32.2 mph N/A   Overcast
11:53 AM 39.0 °F 28.0 °F 24.1 °F 55% 29.92 in 10.0 mi WSW 25.3 mph 35.7 mph N/A   Scattered Clouds
12:18 PM 39.9 °F 29.7 °F 24.1 °F 53% 29.91 in 10.0 mi SW 23.0 mph 34.5 mph N/A   Mostly Cloudy
12:29 PM 42.1 °F 32.3 °F 26.1 °F 53% 29.91 in 10.0 mi WSW 24.2 mph 34.5 mph N/A   Mostly Cloudy
12:53 PM 43.0 °F 33.5 °F 26.1 °F 51% 29.93 in 10.0 mi WSW 24.2 mph 35.7 mph N/A   Scattered Clouds
1:53 PM 46.0 °F 37.0 °F 27.0 °F 47% 29.93 in 10.0 mi WSW 27.6 mph 36.8 mph N/A   Clear
2:53 PM 46.9 °F - 27.0 °F 46% 29.94 in 10.0 mi WSW 28.8 mph 40.3 mph N/A   Clear
3:53 PM 48.9 °F - 28.0 °F 44% 29.95 in 10.0 mi WSW 29.9 mph 36.8 mph N/A   Clear
4:53 PM 50.0 °F - 28.0 °F 43% 29.96 in 10.0 mi WSW 23.0 mph 29.9 mph N/A   Clear
5:53 PM 46.9 °F - 27.0 °F 46% 29.99 in 10.0 mi West 17.3 mph - N/A   Clear
6:53 PM 45.0 °F 38.5 °F 28.0 °F 52% 30.01 in 10.0 mi West 13.8 mph - N/A   Clear
7:53 PM 45.0 °F 41.8 °F 28.0 °F 52% 30.04 in 10.0 mi WSW 5.8 mph - N/A   Overcast
8:53 PM 45.0 °F 40.1 °F 28.9 °F 53% 30.08 in 10.0 mi WSW 9.2 mph - N/A   Overcast
9:53 PM 44.1 °F 38.6 °F 30.0 °F 58% 30.09 in 10.0 mi WSW 10.4 mph - N/A   Overcast
10:53 PM 43.0 °F 37.7 °F 28.9 °F 58% 30.09 in 10.0 mi West 9.2 mph - N/A   Partly Cloudy
11:53 PM 43.0 °F 37.7 °F 28.9 °F 58% 30.09 in 10.0 mi West 9.2 mph - N/A   Partly Cloudy